Weather reports worldwide

Advertisment
Ponferrada, Spain (8053): temperature & dewpoint: 17.05.2019 14:00:00 - 23.05.2019 14:00:00 (CEST)Ponferrada, Spain (8053): wind speed: 17.05.2019 14:00:00 - 23.05.2019 14:00:00 (CEST)Ponferrada, Spain (8053): wind direction: 17.05.2019 14:00:00 - 23.05.2019 14:00:00 (CEST)Ponferrada, Spain (8053): reduced air pressure: 17.05.2019 14:00:00 - 23.05.2019 14:00:00 (CEST)Ponferrada, Spain (8053): visibility: 17.05.2019 14:00:00 - 23.05.2019 14:00:00 (CEST)Ponferrada, Spain (8053): precipitation: 17.05.2019 14:00:00 - 23.05.2019 14:00:00 (CEST)
Date & Time tt [°C] td [°C] ff [km/h] ff [kn] dd ppp [hPa] vv [km] rr [mm]
23.05.2019 14:00:00 - - - - - - - -
23.05.2019 13:00:00 - - - - - - - -
23.05.2019 12:00:00 19,5 9,9 4 2 SW 1017,7 20 0,0
23.05.2019 11:00:00 16,2 10,3 5 3 WSW 1019,0 30 -
23.05.2019 10:00:00 15,1 10,1 8 4 WNW 1019,1 20 0,0
23.05.2019 09:00:00 13,9 9,3 4 2 SW 1018,7 20 0,0
23.05.2019 08:00:00 13,4 9,8 2 1 W 1018,5 20 -
23.05.2019 07:00:00 13,0 9,6 2 1 SE 1018,0 20 0,0
23.05.2019 06:00:00 13,6 9,6 2 1 WSW 1017,7 20 0,0
23.05.2019 05:00:00 14,0 10,0 4 2 SSE 1017,6 20 -
23.05.2019 04:00:00 15,0 10,2 2 1 SSE 1017,3 20 0,0
23.05.2019 03:00:00 15,7 10,2 2 1 E 1017,7 20 0,0
23.05.2019 02:00:00 16,9 9,6 4 2 E 1017,8 20 -
23.05.2019 01:00:00 18,9 9,4 4 2 W 1017,3 20 0,0
23.05.2019 00:00:00 20,1 9,3 8 4 W 1017,2 20 0,0
22.05.2019 23:00:00 21,2 9,7 8 4 WNW 1016,3 20 -
22.05.2019 22:00:00 21,9 9,8 9 5 WNW 1015,1 20 0,0
22.05.2019 21:00:00 - - - - - - - -
22.05.2019 20:00:00 - - - - - - - -
22.05.2019 19:00:00 26,6 6,1 9 5 WNW 1012,9 20 0,0
22.05.2019 18:00:00 27,2 6,6 9 5 W 1013,0 20 0,0
22.05.2019 17:00:00 27,1 8,0 5 3 WNW 1013,2 30 -
22.05.2019 16:00:00 25,5 7,1 9 5 WNW 1014,1 3,6 0,0
22.05.2019 15:00:00 24,8 7,0 11 6 WNW 1014,9 2,8 0,0
22.05.2019 14:00:00 23,5 7,1 8 4 WNW 1015,6 30 -
22.05.2019 13:00:00 22,0 8,5 4 2 NE 1016,5 20 0,0
22.05.2019 12:00:00 19,4 8,1 4 2 ENE 1017,5 20 0,0
22.05.2019 11:00:00 16,5 8,9 5 3 WNW 1018,3 30 -
22.05.2019 10:00:00 14,2 9,0 5 3 W 1018,9 20 0,0
22.05.2019 09:00:00 12,9 8,4 4 2 W 1019,2 20 0,0
22.05.2019 08:00:00 10,4 8,2 2 1 ESE 1019,6 30 -
22.05.2019 07:00:00 9,9 7,8 2 1 NNE 1019,5 20 0,0
22.05.2019 06:00:00 10,6 8,2 2 1 N 1019,2 20 0,0
22.05.2019 05:00:00 11,6 8,4 4 2 E 1018,9 20 -
22.05.2019 04:00:00 12,8 8,9 2 1 NW 1018,8 20 0,0
22.05.2019 03:00:00 14,0 9,0 2 1 NNW 1018,3 20 0,0
22.05.2019 02:00:00 - - - - - - - -
22.05.2019 01:00:00 15,1 9,5 4 2 SE 1017,4 20 0,0
22.05.2019 00:00:00 16,2 9,8 4 2 SE 1017,2 20 0,0
21.05.2019 23:00:00 18,1 10,0 4 2 WSW 1016,2 20 -
21.05.2019 22:00:00 19,9 10,0 8 4 WSW 1014,9 20 0,0
21.05.2019 21:00:00 22,6 9,0 9 5 WNW 1013,2 20 0,0
21.05.2019 20:00:00 23,1 5,9 2 1 WNW 1012,7 20 -
21.05.2019 19:00:00 24,8 5,0 8 4 WNW 1012,2 20 0,0
21.05.2019 18:00:00 24,6 4,9 5 3 WNW 1012,4 20 0,0
21.05.2019 17:00:00 24,3 5,1 9 5 W 1012,9 30 -
21.05.2019 16:00:00 - - - - - - - -
21.05.2019 15:00:00 22,7 5,6 8 4 SW 1013,8 19 0,0
21.05.2019 14:00:00 21,3 5,2 8 4 W 1014,5 30 -
21.05.2019 13:00:00 19,1 6,2 8 4 W 1015,2 4,9 0,0
21.05.2019 12:00:00 17,0 6,2 5 3 W 1016,1 20 0,0
21.05.2019 11:00:00 14,8 6,4 4 2 W 1016,9 20 -
21.05.2019 10:00:00 12,5 5,6 5 3 NW 1017,7 20 0,0
21.05.2019 09:00:00 11,1 5,4 4 2 NNE 1017,8 20 0,0
21.05.2019 08:00:00 8,2 5,0 4 2 SE 1018,4 30 -
21.05.2019 07:00:00 8,1 4,5 2 1 WSW 1017,9 20 0,0
21.05.2019 06:00:00 8,8 5,0 4 2 WNW 1017,3 20 0,0
21.05.2019 05:00:00 9,2 4,6 5 3 SSW 1017,0 20 -
21.05.2019 04:00:00 9,4 4,8 4 2 SE 1016,8 20 0,0
21.05.2019 03:00:00 10,3 4,6 2 1 ESE 1016,4 20 0,0
21.05.2019 02:00:00 11,7 4,7 2 1 E 1016,2 20 -
21.05.2019 01:00:00 13,3 4,4 2 1 NNE 1015,6 20 0,0
21.05.2019 00:00:00 15,1 3,9 4 2 W 1015,0 20 0,0
20.05.2019 23:00:00 15,9 3,3 4 2 WSW 1014,5 20 -
20.05.2019 22:00:00 16,4 2,4 5 3 WNW 1013,5 20 0,0
20.05.2019 21:00:00 17,6 1,1 9 5 WNW 1012,7 20 0,0
20.05.2019 20:00:00 18,5 3,1 11 6 NW 1012,1 20 -
20.05.2019 19:00:00 19,3 3,4 13 7 WNW 1011,7 20 0,0
20.05.2019 18:00:00 20,4 3,1 9 5 W 1011,4 20 0,0
20.05.2019 17:00:00 20,3 0,7 8 4 W 1011,4 30 -
20.05.2019 16:00:00 19,8 -0,8 9 5 W 1012,0 20 0,0
20.05.2019 15:00:00 18,9 0,9 8 4 W 1012,6 20 0,0
20.05.2019 14:00:00 17,5 3,7 5 3 NNE 1013,3 30 -
20.05.2019 13:00:00 15,3 4,6 8 4 W 1014,3 20 0,0
20.05.2019 12:00:00 13,9 4,7 5 3 WNW 1014,8 20 0,0
20.05.2019 11:00:00 11,2 4,9 5 3 WNW 1015,9 30 -
20.05.2019 10:00:00 9,0 4,2 5 3 WNW 1016,7 20 0,0
20.05.2019 09:00:00 7,0 3,8 2 1 WSW 1017,1 20 0,0
20.05.2019 08:00:00 5,5 3,3 0 0 N 1017,1 30 -
20.05.2019 07:00:00 5,4 3,2 2 1 NNW 1016,3 20 0,0
20.05.2019 06:00:00 5,4 3,1 2 1 ENE 1016,3 20 0,0
20.05.2019 05:00:00 6,0 3,2 2 1 NE 1016,4 20 -
20.05.2019 04:00:00 7,1 3,7 2 1 SSE 1016,0 20 0,0
20.05.2019 03:00:00 8,1 4,1 2 1 ESE 1016,1 20 0,0
20.05.2019 02:00:00 9,5 4,5 4 2 SSE 1015,9 20 -
20.05.2019 01:00:00 10,2 5,0 4 2 SSW 1015,7 20 0,0
20.05.2019 00:00:00 10,8 4,9 4 2 ENE 1015,3 20 0,0
19.05.2019 23:00:00 12,6 4,8 8 4 WSW 1014,4 20 -
19.05.2019 22:00:00 - - - - - - - -
19.05.2019 21:00:00 - - - - - - - -
19.05.2019 20:00:00 - - - - - - - -
19.05.2019 19:00:00 - - - - - - - -
19.05.2019 18:00:00 - - - - - - - -
19.05.2019 17:00:00 - - - - - - - -
19.05.2019 16:00:00 - - - - - - - -
19.05.2019 15:00:00 - - - - - - - -
19.05.2019 14:00:00 - - - - - - - -
19.05.2019 13:00:00 - - - - - - - -
19.05.2019 12:00:00 - - - - - - - -
19.05.2019 11:00:00 - - - - - - - -
19.05.2019 10:00:00 - - - - - - - -
19.05.2019 09:00:00 - - - - - - - -
19.05.2019 08:00:00 - - - - - - - -
19.05.2019 07:00:00 - - - - - - - -
19.05.2019 06:00:00 - - - - - - - -
19.05.2019 05:00:00 - - - - - - - -
19.05.2019 04:00:00 - - - - - - - -
19.05.2019 03:00:00 - - - - - - - -
19.05.2019 02:00:00 7,2 3,6 4 2 E 1016,7 20 -
19.05.2019 01:00:00 8,5 3,9 4 2 NNW 1016,5 20 0,0
19.05.2019 00:00:00 9,4 4,2 5 3 W 1016,3 20 0,0
18.05.2019 23:00:00 10,1 4,2 5 3 WNW 1016,0 20 -
18.05.2019 22:00:00 11,0 4,2 9 5 WNW 1015,3 20 0,0
18.05.2019 21:00:00 12,2 3,4 9 5 WNW 1014,8 20 0,0
18.05.2019 20:00:00 12,9 3,8 11 6 WNW 1014,1 20 -
18.05.2019 19:00:00 13,3 4,4 13 7 WNW 1014,1 20 0,0
18.05.2019 18:00:00 12,7 4,1 11 6 NW 1013,9 20 0,0
18.05.2019 17:00:00 12,9 3,3 13 7 NW 1013,7 20 -
18.05.2019 16:00:00 12,9 2,7 16 9 NW 1013,8 20 0,0
18.05.2019 15:00:00 14,3 2,8 11 6 W 1013,2 20 0,0
18.05.2019 14:00:00 13,5 3,3 13 7 W 1013,7 20 -
18.05.2019 13:00:00 12,7 3,9 15 8 WNW 1014,3 20 0,0
18.05.2019 12:00:00 11,7 3,9 13 7 W 1014,6 20 0,0
18.05.2019 11:00:00 9,7 4,1 9 5 W 1015,0 19 -
18.05.2019 10:00:00 8,6 4,0 11 6 WSW 1015,2 20 0,0
18.05.2019 09:00:00 7,9 3,7 9 5 WNW 1015,3 20 0,0
18.05.2019 08:00:00 7,4 3,4 9 5 W 1015,1 20 -
18.05.2019 07:00:00 7,2 3,2 4 2 WNW 1014,8 20 0,0
18.05.2019 06:00:00 7,1 3,5 9 5 WNW 1014,8 20 0,0
18.05.2019 05:00:00 7,3 3,5 5 3 W 1014,9 20 -
18.05.2019 04:00:00 7,2 3,1 8 4 W 1015,2 20 0,0
18.05.2019 03:00:00 7,7 2,4 8 4 WNW 1015,6 20 0,0
18.05.2019 02:00:00 7,7 2,8 9 5 WNW 1015,9 20 -
18.05.2019 01:00:00 7,9 3,0 13 7 W 1015,7 20 0,0
18.05.2019 00:00:00 7,8 3,1 11 6 W 1016,0 20 0,0
17.05.2019 23:00:00 8,3 2,9 15 8 WNW 1015,7 20 -
17.05.2019 22:00:00 9,7 2,3 11 6 WNW 1014,9 20 0,0
17.05.2019 21:00:00 10,7 3,0 11 6 WNW 1014,5 20 0,0
17.05.2019 20:00:00 11,8 3,3 13 7 NW 1014,1 20 -
17.05.2019 19:00:00 12,2 4,2 18 10 WNW 1013,8 20 0,0
17.05.2019 18:00:00 12,6 3,3 15 8 WNW 1013,5 20 0,0
17.05.2019 17:00:00 12,7 3,9 16 9 WNW 1013,9 20 -
17.05.2019 16:00:00 14,4 4,9 16 9 WNW 1013,4 20 0,0
17.05.2019 15:00:00 13,6 4,7 16 9 WNW 1013,8 20 0,0
17.05.2019 14:00:00 12,2 5,4 8 4 W 1014,2 18 -

tt = temperature
td = dewpoint
ff = wind speed
dd = wind direction
ppp = reduced air pressure
vv = visibility
rr = precipitation

Next stations